Regional Weather Roundup
Issued by NWS Cleveland, OH

Home | Current Version | Previous Version | Graphics & Text | Print | Product List | Glossary On
Versions: 1 2 3 4 5 6 7 8 9 10 11 12 13 14 15 16 17 18 19 20 21 22 23 24 25 26 27 28 29 30 31 32 33 34 35 36 37 38 39 40 41 42 43 44 45 46 47 48 49 50
000
ASUS41 KCLE 060610
RWRCLE
OHIO REGIONAL WEATHER ROUNDUP
NATIONAL WEATHER SERVICE WILMINGTON, OH
200 AM EDT FRI MAY 06 2016

NOTE: "FAIR" INDICATES FEW OR NO CLOUDS BELOW 12,000 FEET WITH NO
SIGNIFICANT WEATHER AND/OR OBSTRUCTIONS TO VISIBILITY.

OHZ001>008-015>018-024>027-034-035-043-044-060700-
   NORTHWEST OHIO

CITY           SKY/WX    TMP DP  RH WIND       PRES   REMARKS
DEFIANCE       FAIR      52  41  66 NW6       29.93R
FINDLAY        FAIR      47  37  68 NW5       29.90R
TOLEDO EXPRESS FAIR      49  39  68 NW5       29.91R
TOLEDO EXEC    FAIR      52  35  52 N3        29.91S
LIMA           MOCLDY    48  41  76 N5        29.91R
$$

OHZ009>014-019>023-028>033-038-089-060700-
   NORTHEAST OHIO

CITY           SKY/WX    TMP DP  RH WIND       PRES   REMARKS
CLE-HOPKINS    FAIR      48  43  82 N3        29.90R
CLE-LAKEFRONT  MOCLDY    50  44  80 N6        29.87R
CUY CO. ARPT   NOT AVBL
LORAIN-ELYRIA  FAIR      47  40  76 N6        29.88S
ASHTABULA      FAIR      43  42  97 CALM      29.85S
AKRON-CANTON   FAIR      47  42  83 N9        29.84S
WOOSTER        FAIR      46  42  86 NW10      29.86S
MANSFIELD      MOCLDY    46  40  79 NW8       29.88R
YOUNGSTOWN     FAIR      46  42  86 N8        29.83S
$$

OHZ042-051>053-060>062-070>072-077>081-060700-
  SOUTHWEST OHIO

CITY           SKY/WX    TMP DP  RH WIND       PRES   REMARKS
CINC-COVINGTON FAIR      50  45  83 NW8       29.92R
CINC-LUNKEN    FAIR      51  45  79 VRB6      29.92R
HAMILTON       FAIR      50  45  83 NW8       29.93R
DAYTON         FAIR      48  41  76 NW9       29.92R
WRIGHT-PAT AFB FAIR      44  43  97 VRB1      29.90S
DAYTON GENERAL FAIR      50  41  71 NW7       29.90S
WILMINGTON     FAIR      49  38  65 NW9       29.89S
$$

OHZ036-037-039>041-045>050-054>059-063>069-073>076-082>088-060700-
  CENTRAL AND SOUTHEAST OHIO

CITY           SKY/WX    TMP DP  RH WIND       PRES   REMARKS
COLUMBUS       CLOUDY    51  42  71 N9        29.85F
OSU AIRPORT    CLOUDY    50  39  66 NW10      29.87S
BOLTON FIELD   CLOUDY    49  40  71 NW7       29.88S
RICKENBACK AFB CLOUDY    52  41  65 N14       29.85S
NEWARK         MOCLDY    52  41  66 NE3       29.85R
MARION         FAIR      48  39  71 N8        29.89S
LANCASTER      FAIR      49  42  77 N5        29.86R
ZANESVILLE     CLOUDY    53  43  68 N6        29.84R
NEW PHILLY     FAIR      49  43  80 NW6       29.84R
$$




USA.gov is the U.S. government's official web portal to all federal, state and local government web resources and services.